Regional Weather Roundup
Issued by NWS

Home | Current Version | Previous Version | Graphics & Text | Print | Product List | Glossary On
Versions: 1 2 3 4 5 6 7 8 9 10 11 12 13 14 15 16 17 18 19 20 21 22 23 24 25 26 27 28 29 30 31 32 33 34 35 36 37 38 39 40 41 42 43 44 45 46 47 48 49
000
ASUS45 KSLC 261210
RWRUT

UTAH REGIONAL WEATHER ROUNDUP
NATIONAL WEATHER SERVICE SALT LAKE CITY UT
500 AM MST MON JAN 26 2015

UTZ001>011-023>025-261300-

NORTHERN UTAH

CITY           SKY/WX    TMP DP  RH WIND       PRES   REMARKS
BRIGHAM CITY   CLEAR     30  28  90 CALM      30.43S
HILL AFB       CLEAR     34  29  82 SE6       30.41R WCI  29
LOGAN          FOG       28  26  92 E3        30.44R VSB 1
OGDEN          CLEAR     31  28  89 SW3       30.41S
PROVO AIRPORT  PTCLDY    28  25  86 CALM      30.43F
SALT LAKE CITY CLEAR     31  28  89 SE8       30.42S WCI  23
VERNAL         CLEAR     21  16  81 N3        30.46R
WENDOVER       PTCLDY    27  21  80 CALM      30.40S
HEBER CITY     PTCLDY    21  21 100 E7        30.43S WCI  13
WEST JORDAN    CLEAR     30  28  93 SW7       30.43S WCI  23

$$

UTZ012>022-026-027-261300-

SOUTHERN/CENTRAL UTAH

CITY           SKY/WX    TMP DP  RH WIND       PRES   REMARKS
BLANDING       CLEAR     32  24  71 N5        30.43S WCI  28
BRYCE CANYON   PTCLDY    22  20  92 W7        30.41S WCI  13
CEDAR CITY     PTCLDY    25  22  88 CALM      30.34F
DELTA          PTCLDY    28  27  96 N7        30.39F WCI  21
MILFORD        PTCLDY    25  21  85 S5        30.38S WCI  19
MOAB/CYNLANDS  CLEAR     27  22  81 CALM      30.38F
PRICE          PTCLDY    28  21  75 N7        30.39F WCI  21
ST GEORGE      MOSUNNY   39  25  56 NE3       30.27S
KANAB          CLEAR     37  27  65 N9        30.32F WCI  31

$$

REGIONAL REPORTS     COLORADO/ARIZONA

CITY           SKY/WX    TMP DP  RH WIND       PRES   REMARKS
CRAIG, CO      PTCLDY    13  10  88 CALM      30.45R
GRAND JUNCTION PTCLDY    28  21  75 CALM      30.40R
RIFLE          PTCLDY    23  19  85 SE3       30.44R
MONTROSE       CLEAR     23  19  85 SE5       30.43R WCI  17
CORTEZ         CLEAR     21  18  88 E3        30.38R
PAGE, AZ       NOT AVBL
GRAND CANYON   MOCLDY    28  20  71 CALM      30.32S
KINGMAN        PTCLDY    40  25  55 E5        30.18F
FLAGSTAFF      PTCLDY    32  20  61 CALM      30.32S

$$

REGIONAL REPORTS    NEVADA/IDAHO/WYOMING

CITY           SKY/WX    TMP DP  RH WIND       PRES   REMARKS
LAS VEGAS, NV  PTCLDY    51  32  48 SW9       30.13F
ELY            PTCLDY    21  19  92 S7        30.39F WCI  12
ELKO           CLEAR     27  24  89 NE5       30.34F WCI  22
POCATELLO, ID  FOG       28  28 100 NE5       30.43F VSB 1/4 WCI  23
BURLEY         FOG       30  29  96 NE15      30.37F VSB 1   WCI  19
EVANSTON, WY   PTCLDY    31  26  82 CALM      30.42R
ROCK SPRINGS   MOCLDY    32  26  78 SW13      30.39R WCI  22
KEMMERER       PTCLDY    27  27 100 NW6       30.42R WCI  20

$$



USA.gov is the U.S. government's official web portal to all federal, state and local government web resources and services.